Location: Passau
(48.5830°N, 13.4830°E)
Time: 21:05:37
(UTC+02:00)

S-56A Canister/Altair - Pass Details

Date: 24 May 2024
Orbit: 637 x 2489 km, 38.9° (Epoch: 16 June)

Event Time Altitude Azimuth Distance (km) Brightness Sun altitude
Rises 08:04:23 0° 244° (WSW) 5,841 11.5 25.5°
Reaches altitude 10° 08:08:44 10° 239° (WSW) 4,622 11.1 26.2°
Maximum altitude 08:20:00 45° 173° (S) 2,109 10.2 28.1°
Drops below altitude 10° 08:27:45 10° 104° (ESE) 3,218 12.2 29.4°
Sets 08:30:15 0° 98° (E) 3,966 12.4 29.8°
